Home > Weather > Flagstaff > Past weeks

Flag for USA Past Weather in Flagstaff, Arizona, USA — Yesterday and Last 2 Weeks

Now
56 °F

Sunny.


Feels Like: 56 °F
Forecast: 58 / 85 °F
Wind: No wind

Location: Flagstaff Pulliam Airport

Current Time: Jul 23, 2016 at 6:22:18 AM

Latest Report: Jul 23, 2016 at 5:57 AM


Visibility: 10 mi

Pressure: 30.03 "Hg (23.36 "Hg at 2103m altitude)

Humidity: 77%

Dew Point: 49 °F

Location of FlagstaffLocation

Past Weather in Flagstaff — Graph

°F

Flagstaff Temperature Yesterday

Maximum temperature yesterday: 82 °F (at 11:57 AM)
Minimum temperature yesterday: 54 °F (at 4:57 AM)
Average temperature yesterday: 67 °F

High & Low Weather Summary for the Past Weeks

 TemperatureHumidityPressure
High88 °F (Jul 15, 3:57 PM)100% (Jul 19, 11:57 PM)30.36 "Hg (Jul 19, 11:57 PM)
Low42 °F (Jul 12, 3:57 AM)8% (Jul 10, 1:57 PM)29.76 "Hg (Jul 10, 11:57 PM)
Average68 °F43%30.00 "Hg
* Reported Jul 8 4:57 AM — Jul 23 4:57 AM, Flagstaff, Weather by CustomWeather, © 2016

Note: Actual official high and low records may vary slightly from our data, if they occured in-between our weather recording intervals... More about our weather records

Advertising

Flagstaff Weather History for the Previous 24 Hours

Scroll right to see more
 ConditionsComfort  
Time TempWeatherWind HumidityBarometerVisibility
4:57 AM
Sat, Jul 23
58 °FClear.No wind72%29.99 "Hg10 mi
3:57 AM59 °FPassing clouds.No wind75%29.99 "Hg10 mi
2:57 AM61 °FPassing clouds.No wind72%30.01 "Hg10 mi
1:57 AM61 °FClear.No wind67%30.01 "Hg10 mi
12:57 AM63 °FClear.5 mph63%29.99 "Hg10 mi
11:57 PM
Fri, Jul 22
63 °FClear.5 mph63%30.00 "Hg10 mi
10:57 PM68 °FClear.No wind49%30.03 "Hg10 mi
9:57 PM64 °FClear.8 mph63%30.08 "Hg10 mi
8:57 PM66 °FClear.7 mph56%30.07 "Hg10 mi
7:57 PM68 °FClear.7 mph53%30.03 "Hg10 mi
6:57 PM70 °FPassing clouds.7 mph49%30.06 "Hg10 mi
5:57 PM72 °FSunny.No wind41%30.08 "Hg10 mi
4:57 PM76 °FSunny.5 mph30%30.05 "Hg10 mi
3:57 PM72 °FThunderstorms. Overcast.5 mph49%30.10 "Hg10 mi
2:57 PM71 °FThunderstorms. Partly sunny.10 mph47%30.10 "Hg10 mi
1:57 PM74 °FScattered clouds.No wind43%30.08 "Hg10 mi
12:57 PM81 °FPartly sunny.17 mph32%30.08 "Hg10 mi
11:57 AM82 °FScattered clouds.6 mph32%30.09 "Hg10 mi
10:57 AM78 °FSunny.8 mph40%30.14 "Hg10 mi
9:57 AM75 °FSunny.6 mph47%30.15 "Hg10 mi
8:57 AM72 °FSunny.9 mph52%30.15 "Hg10 mi
7:57 AM69 °FSunny.14 mph59%30.16 "Hg10 mi
6:57 AM64 °FSunny.6 mph73%30.14 "Hg10 mi
Weather by CustomWeather, © 2016

See weather overviewHow to use our weather pages